BETTING FIXED MATCHES

Welcome to the bettingfixed.com !!!

senka

bettingfixed.com is registered company offering professional betting services. We provide our customers with secure and profitable soccer tips, offering high stake rate and guaranteed profit. All matches that our customers receive are carefully picked and verified from our professional team, providing to our customers high quality services with reliable and accurate soccer tips. Our team is composed of the main sources of fixed matches in Europe and all around World. We are a team of dedicated professional soccer analysts working together to help punters all over the World who fail to profit from their bets. With over 15 years experience, we are definitely the ultimate choice you can rely on for long-term winnings on sport betting. If you choose to cooperate with us your profit is guaranteed. We provide the best matches with the biggest chance to win. Start our cooperation and win a lot of money instantly!

bettingfixed

Betting fixed sure match half time full time

HALF TIME – FULL TIME OFFER
senka
bettingfixed.com gives you opportunity to get access to information from inside club sources.
All interested buyers can pay in two times before and after.
senka
NEXT HT-FT MATCHES
29.07.2017 SATURDAY

Price: contact on e-mail for more info !

Info.bettingfixed@gmail.com

senka

Our team guaranteed sure profit and long cooperation!

MATCH TYPE: (HT/FT)
ODDS: 15.00 – 45.00
senka
We are leading a way of business where clients can’t make any kind of loss.
Number of buyers is limited to protect teams, and to prevent over betting in bookmakers.
All e-mails who wants test or free match will be rejected !!!

Payment is made trough the following services:

betting fixed matches
senka
senka
senka
senka
fixed-matches
http://oi59.tinypic.com/wmo136.jpg
real-fixed-matches.bloger.index.hr
http://www.best-soccer-tips1x2.com/wp-content/uploads/2014/12/best-soccer-tips1x2.gif
fixed dojave htft.com
revolution tips 1x2 professional-tips1x2.com/

 

Best soccer and Football betting tips 1×2

DATE MATCH PICK ODD RESULT
29.07.2017
22.07.2017 Zenit Petersburg – Rubin Kazan 2/1 23.00 HT: 0:1 / FT: 2:1
15.07.2017 Solihull (Eng) – Walsall (Eng) 2/1 26.00 HT: 0:1 / FT: 3:2
08.07.2017 Keski Uusimaa – Mikkeli 2/1 26.00 HT: 0:1 / FT: 4:1
01.07.2017 Varmdo – Sleipner 1/2 21.00 HT: 1:0 / FT: 1:2
24.06.2017 FC Gomel – FC Minsk 2/1 26.00 HT: 0:1 / FT: 2:1
17.06.2017 Husqvarna – Utsiktens 2/1 29.00 HT: 0:1 / FT: 2:1
10.06.2017 Grenada – Bermuda 1/2 29.00 HT: 1:0 / FT: 1:2
03.06.2017 Assyriska BK – Mjallby 1/2 23.00 HT: 1:0 / FT: 1:4
27.05.2017 Varbergs – Falkenbergs 1/2 41.00 HT: 2:1 / FT: 3:5
20.05.2017 Deportivo P – Juventud Unida S.M. 2/1 34.00 HT: 0:1 / FT: 2:1
13.05.2017 Stutt. Kickers – Eintracht Trier 2/1 23.00 HT: 0:1 / FT: 2:1
06.05.2017 Saguntino – Cornella 1/2 34.00 HT: 1:0 / FT: 1:2
29.04.2017 Bonner – Wiedenbruck 2/1 26.00 HT: 0:1 / FT: 3:1
22.04.2017 Maidenhead – Ebbsfleet 1/2 29.00 HT: 1:0 / FT: 1:2
15.04.2017 Brusque – Inter de Lages 2/1 23.00 HT: 0:1 / FT: 2:1
08.04.2017 Hannover U19 – Holstein Kiel U19 2/1 29.00 HT: 1:2 / FT: 3:2
01.04.2017 Opava – FK Pardubice 1/2 51.00 HT: 1:0 / FT: 1:2
25.03.2017 Barnet – Cheltenham 2/1 29.00 HT: 0:1 / FT: 3:1
18.03.2017 Mirassol – Santo Andre 1/2 41.00 HT: 2:1 / FT: 2:3
11.03.2017 Wattenscheid – B. Monchen.
2/1 34.00 HT: 1:2 / FT: 3:2
04.03.2017 Linense – Novorizontino 2/1 29.00 HT: 0:1 / FT: 3:2
25.02.2017 DVTK – MTK Budapest 1/2 34.00 HT: 2:1 / FT: 2:3
18.02.2017 Cambridge Utd – Newport 2/1 29.00 HT: 0:1 / FT: 3:2
11.02.2017 Flamengo PI – Picos 1/2 31.00 HT: 1:0 / FT: 1:2
04.02.2017 Crawley Town – Stevenage 1/2 29.00 HT: 1:0 / FT: 1:2
28.01.2017 Scunthorpe – Port Vale 2/1 21.00 HT: 0:1 / FT: 3:2
21.01.2017 Fredericia (Den) – Esbjerg (Den) 1/2 23.00 HT: 1:0 / FT: 1:2
14.01.2017 Ballymena – Dungannon 2/1 22.00 HT: 0:1 / FT: 3:2
07.01.2017 Stranraer – Alloa 1/2 26.00 HT: 1:0 / FT: 1:2
31.12.2016 East Fife – Livingston 2/1 34.00 HT: 0:1 / FT: 2:1
24.12.2016 Olympique Beja – Metlaoui 2/X 17.00 HT: 1:2 / FT: 2:2
17.12.2016 Al-Ittihad FC – Al-Fateh 2/1 21.00 HT: 1:2 / FT: 3:2
10.12.2016 Dagenham & Red. – Worthing 1/2 41.00 HT: 1:0 / FT: 1:2
03.12.2016 Imotski – Sibenik 2/1 29.00 HT: 0:1 / FT: 3:2
26.11.2016 Aarau – Xamax 1/2 26.00 HT: 2:1 / FT: 2:3
19.11.2016 Racing Montevideo – River Plate 2/1 23.00 HT: 0:1 / FT: 2:1
12.11.2016 Elgin City – Stirling 1/2 29.00 HT: 1:0 / FT: 2:3
05.11.2016 Sampaio Correa – Joinville
1/2 41.00 HT: 1:0 / FT: 1:2
29.10.2016 Barnet – Hartlepool 2/1 26.00 HT: 0:1 / FT: 3:2
22.10.2016 Fylde – Harrogate 2/1 21.00 HT: 0:1 / FT: 2:1
15.10.2016 Scunthorpe – Milton Keynes Dons 2/1 26.00 HT: 0:1 / FT: 2:1
08.10.2016 Trinec – Sokolov 2/1 23.00 HT: 0:1 / FT: 2:1
01.10.2016 Northampton – Bristol Rovers 1/2 29.00 HT: 1:0 / FT: 2:3
24.09.2016 Ballymena – Glentoran 2/1 23.00 HT: 0:1 / FT: 4:1
17.09.2016 Honka – TPV 2/1 23.00 HT: 0:1 / FT: 3:1
10.09.2016 Slavia Sofia – Lokomotiv Plovdiv 2/1 23.00 HT: 0:2 / FT: 5:2
03.09.2016 F.N.Q. Heat – Redlands 1/2 23.00 HT: 2:1 / FT: 2:3
27.08.2016 Nest Sotra – Lysekloster 2/1 23.00 HT: 1:2 / FT: 4:2
20.08.2016 SpVgg Bayreuth – Bayern II 1/2 23.00 HT: 1:0 / FT: 1:3
14.08.2016 Hodd – Levanger 2/1 26.00 HT: 1:2 / FT: 3:2
06.08.2016 Hudiksvalls – Bodens 2/1 23.00 HT: 0:1 / FT: 4:2

 

Betting tips football betting predictions

senka

WE HAVE ONLY 1 MEMBERSHIP OFFER
THERE IS NO LIE BETWEEN OUR TEAM AND OUR MEMBERS.
GAMES THAT WE SEND TO OUR MEMBERS ARE THE SAME IN OUR ARCHIVE
WE DON’T MAKE EXCUSES-WE MAKE ONLY RESULTS

senka

TIME

1 WEEK

2 WEEKS

1MONTH

GAMES

5-7 (2.00-5.00 odds)

12-14 (2.00-5.00 odds)

26-30 (2.00-5.00 odds)

PRICE

60 Euros

80 Euros

120 Euros

PAYMENT betting fixed matches

info.bettingfixed@gmail.com

senka

Soccer prediction sites soccer tips

.

DATE MATCH PICK ODD RESULT
JULY
30.07.2017
29.07.2017
28.07.2017
27.07.2017
26.07.2017 AZ Alkmaar (Ned) – Malaga (Esp) 1 2.60 3:0
25.07.2017 Confianca – Cuiaba Esporte X 3.20 1:1
24.07.2017 Anyang – Seoul E. 1 2.30 2:0
23.07.2017 Lada Togliatti – Saratov 2 2.00 1:3
22.07.2017 Bodo/Glimt – Ranheim 4+ 2.40 3:3
21.07.2017 Wexford – Longford BTS 2.00 1:2
20.07.2017 New York City – Toronto FC 1 2.10 2:2
19.07.2017 Incheon – Seoul 3+ 2.15 1:5
18.07.2017 Ostroda – Polonia Warszawa 1 2.60 2:0
17.07.2017 HIFK – KuPS 2 2.40 1:4
16.07.2017 Seattle 2 – Orange County SC 2 2.90 1:2
15.07.2017 Zimbru Chisinau – Sfintul 1 2.10 4:0
14.07.2017 Nykopings – Akropolis 4+ 2.40 2:3
13.07.2017 Gent (Bel) – Nice (Fra) 2 2.40 2:3
12.07.2017 Sokol Usti (Cze) – Kozlovice (Cze) 1 2.60 4:1
11.07.2017 Keflavik – Kopavogur 4+ 2.40 3:1
10.07.2017 Suwon City – Busan 1 2.90 1:0
09.07.2017 C.R.D. Libolo (Ang) – Smouha (Egy)
1 2.90 0:0
08.07.2017 Lausanne (Sui) – Nantes (Fra) X 3.50 2:2
07.07.2017 Villa Dalmine – Central Cordoba 3+ 2.35 0:5
06.07.2017 Infonet Tallinn II – Santos Tartu 4+ 2.15 5:1
05.07.2017 FBC Melgar – Cajamarca 1 2.00 2:0
04.07.2017 Le Havre – Lorient 2 2.40 0:1
03.07.2017 Nykobing – Helsingor 2 2.40 0:2
02.07.2017 Delfin – LDU Quito 1 2.00 4:1
01.07.2017 Almagro – Villa Dalmine 3+ 2.90 1:2

 

DATE MATCH PICK ODD RESULT
JUNE
30.06.2017 T. Moscow – Kursk 2 2.25 2:2
29.06.2017 Zaria Balti – FK Sarajevo 1 2.75 2:1
28.06.2017 Remo Stars – Akwa BTS 2.50 2:2
27.06.2017 Pogon Szczecin – Zaglebie 1 2.40 2:1
26.06.2017 Rovaniemi – Ilves 2 2.40 1:0
25.06.2017 LDU Quito – Emelec X 3.20 1:1
24.06.2017 Goias – Vila Nova FC 1 2.05 0:2
23.06.2017 Nasr Taadeen – El-Sharqeya 3+ 2.45 2:1
22.06.2017 Flandria – Argentinos Jrs 2 2.45 0:1
21.06.2017 Gwangju FC – Suwon Bluewings 2 2.25 0:3
20.06.2017 C.R.D. Libolo (Ang) – ZESCO (Zam) 1 2.20 3:0
19.06.2017 Flora – Kalju 1 1.95 2:0
18.06.2017 CD Clan Juvenil – Fuerza A. X 3.10 1:1
17.06.2017 Parma – Alessandria 1 2.40 2:0
16.06.2017 Geylang – Warriors 2 2.30 0:2
15.06.2017 Comerciantes Unidos – Cajamarca 1 2.20 1:0
14.06.2017 Alessandria – Reggiana 3+ 2.60 2:1
13.06.2017 Perseru Serui – Persija Jakarta 2 3.00 0:3
12.06.2017 Belarus – New Zealand 1 2.20 1:0
11.06.2017 Corinthians – Sao Paulo BTS 2.05 3:2
10.06.2017 Justo Jose de Urquiza – Laferrere 1 2.10 5:1
09.06.2017 Sudan – Madagascar BTS 2.35 1:3
08.06.2017 Australia – Saudi Arabia 4+ 3.25 3:2
07.06.2017 Spain – Colombia 3+ 2.10 2:2
06.06.2017 Deportivo Paraguayo – Deportivo Muniz 1 2.10 1:0
05.06.2017 GAIS – Trelleborgs 1 2.40 1:0
04.06.2017 GrIFK – Gnistan 1 2.15 2:1
03.06.2017 Vila Nova FC – Guarani 1 2.10 3:1
02.06.2017 Delfin – Ind. del Valle 2 2.50 2:1
01.06.2017 Midtjylland – Randers FC 1 2.00 3:0

.

Free soccer picks free soccer prediction

barcelonabet1x2
balkan-bet1x2.sportal.tips
smart betting 1x2
manipulated-fixed-matches.sportal.tips
http://oi60.tinypic.com/2e65wzn.jpg topbetfixed
borussiadortmund1x2 Image and video hosting by TinyPic
bookenemy sportal tips europol-fixed.bloger.index.hr
xanthi fixed 365 free predictions

Fixed matches sure fixed 1×2

27-07-2017 07:55:18

senka

EUROPE: Europa League – Qualification
20:00pm Brondby (Den) – Hajduk Split (Cro)

Tip: 1// Odds : 2.00
FT: import1

senka

Best free betting soccer tip

26-07-2017 01:12:44

senka

NORTH & CENTRAL AMERICA: International Champions Cup
01:30am Barcelona – Manchester United

Tip: 1// Odds : 1.95
FT: import1

senka

Fixed games today 1×2

25-07-2017 11:40:13

senka

WORLD: Club Friendly
18:00pm Brescia (Ita) – Giana Erminio (Ita)

Tip: 1// Odds : 1.80
FT: 2:0 import1

senka

Free vip matches 1×2

24-07-2017 02:25:08

senka

RUSSIA: Premier League
18:30pm Arsenal Tula – SKA Khabarovsk

Tip: 1// Odds : 2.00
FT: 1:0 import1

senka

Betting predictions matches today

23-07-2017 03:29:09

senka

ASIA: AFC Championship U23 – Qualification
15:00pm Iran U23 – Oman U23

Tip: 1// Odds : 2.90
FT: 0:2import1

senka